Location: Haulchin
(50.3172°N, 3.4360°E)
Time: 20:23:12
(UTC+00:00)

Cosmos 2333 Rocket - Pass Details

Date: 18 August 2024
Orbit: 838 x 863 km, 70.8° (Epoch: 09 September)

Event Time Altitude Azimuth Distance (km) Brightness Sun altitude
Exits shadow 23:32:04 62° 246° (WSW) 965 2.3 -26.9°
Maximum altitude 23:32:55 74° 302° (WNW) 902 2.3 -26.9°
Drops below altitude 10° 23:38:43 10° 27° (NNE) 2,514 5.4 -27.0°
Sets 23:41:12 0° 30° (NNE) 3,455 6.2 -27.0°
